User: anonymous   Login
Location: Unspecified
(0.0000°N, 0.0000°E)
Time: 02:56:12
(UTC+00:00)
Language:

GALILEO-FM4 - Orbit

View from above orbital plane
View from above orbital plane
View from above satellite
View from above satellite

Ground track
Ground track

The orbit data is extracted from the following two-line orbital elements,

1 38858U 12055B   17231.54131641  .00000001  00000-0  00000+0 0  9994
2 38858  54.9094 190.2777 0003670 256.2822 103.6262  1.70473767 30152
Epoch (UTC): 19 August 2017 12:59:29
Eccentricity: 0.0003670
inclination: 54.9094°
perigee height: 23211 km
apogee height: 23233 km
right ascension of ascending node: 190.2777°
argument of perigee: 256.2822°
revolutions per day: 1.70473767
mean anomaly at epoch: 103.6262°
orbit number at epoch: 3015

The dashed part of the orbit path shows where the satellite is in the earth's shadow,  

DLR